Flag Weather past 2 weeks in Bridgewater, Massachusetts, U.S.A.

Now
45 °F

Clear.


Feels Like: 45 °F
Forecast: 36 / 45 °F
Wind: No wind

Location: Taunton Municipal Airport

Current Time: Nov 25, 2014 at 10:23:03 PM

Latest Report: Nov 25, 2014 at 9:52 PM


Visibility: 10 mi

Pressure: 30.09 "Hg

Humidity: 63%

Dew point: 33 °F

Location of BridgewaterLocation

Historic Weather in Bridgewater — Graph

°F

Bridgewater temperature yesterday

Maximum temperature yesterday: 66 °F (at 11:52 AM)
Minimum temperature yesterday: 35 °F (at 12:52 AM)
Average temperature yesterday: 58 °F

Past Weeks' High & Low Weather Summary

 TemperatureHumidityPressure
High66 °F (Nov 24, 11:52 AM)100% (Nov 11, 8:52 PM)30.45 "Hg (Nov 11, 8:52 PM)
Low17 °F (Nov 16, 2:52 AM)30% (Nov 19, 12:52 PM)29.42 "Hg (Nov 17, 9:52 PM)
Average41 °F68%30.01 "Hg
* Reported Nov 10 8:52 PM — Nov 25 8:52 PM, Bridgewater, Weather by CustomWeather, © 2014

Note: Actual official high and low records may vary slightly from our data, if they occured in-between our weather recording intervals... More about our weather records

Advertising

Bridgewater weather history for previous 24 hours

 ConditionsComfort  
Time TempWeatherWind HumidityBarometerVisibility
8:52 PM
Nov 25
49 °FClear.5 mph46%30.06 "Hg10 mi
7:52 PM51 °FClear.6 mph41%30.03 "Hg10 mi
6:52 PM53 °FClear.5 mph41%30.00 "Hg10 mi
5:52 PM55 °FClear.3 mph37%29.99 "Hg10 mi
4:52 PM56 °FClear.3 mph37%29.96 "Hg10 mi
3:52 PM58 °FSunny.3 mph36%29.93 "Hg10 mi
2:52 PM60 °FSunny.6 mph32%29.92 "Hg10 mi
1:52 PM61 °FPassing clouds.6 mph35%29.90 "Hg10 mi
12:52 PM62 °FPassing clouds.6 mph35%29.89 "Hg10 mi
11:52 AM63 °FSunny.10 mph48%29.90 "Hg10 mi
10:52 AM63 °FPassing clouds.8 mph58%29.89 "Hg10 mi
9:52 AM64 °FSunny.9 mph65%29.89 "Hg10 mi
8:52 AM60 °FSunny.7 mph83%29.87 "Hg10 mi
7:52 AM59 °FPartly sunny.7 mph90%29.86 "Hg7 mi
6:52 AM59 °FLow clouds.10 mph90%29.84 "Hg8 mi
6:04 AM59 °FLow clouds.8 mph90%29.83 "Hg8 mi
4:52 AM59 °FLow clouds.9 mph93%29.79 "Hg7 mi
3:52 AM58 °FLow clouds.10 mph93%29.76 "Hg8 mi
2:52 AM59 °FLow clouds.8 mph90%29.76 "Hg10 mi
1:52 AM60 °FPassing clouds.9 mph86%29.75 "Hg10 mi
12:52 AM60 °FLow clouds.10 mph90%29.73 "Hg8 mi
11:52 PM
Nov 24
59 °FLow clouds.7 mph93%29.72 "Hg7 mi
11:04 PM59 °FMostly cloudy.10 mph90%29.73 "Hg8 mi
10:52 PM59 °FPartly cloudy.9 mph90%29.73 "Hg8 mi
Weather by CustomWeather, © 2014

See weather overviewHow to use our weather pages